STARLINK-3883 (52493 NORAD) Tracking and Keplerian Element Data

This shows tracking and keplerian element data for the satellite.

Feedback or suggestion? Click here.




ElementValue
Catalog52493
NameSTARLINK-3883
Epoch Orbit130
Epoch Day167.08334491
Epoch Year2022
RAAN64.9713
Inclination53.2168
Eccentricity0.0001699
Argument of Perigee30.9772
Mean Anonmoly121.7686
Mean Motion15.73204116
Decay Rate0.00053533
L11 52493U 22049AU 22167.08334491 .00053533 00000+0 38334-3 0 9992
L22 52493 53.2168 64.9713 0001699 30.9772 121.7686 15.73204116 1308

Live tracking and technical data element details for STARLINK-3883 (NORAD 52493). STARLINK-3883 can be tracked NOW for your location showing map with azimuth and elevation plus other details from your city location.

Track the satellite on the map from your city or location and see movement details for azimuth, elevation, latitude, longitude, range, height, and movement on the map or in text.







IsCatalogInMostPopularTable: catalog: 52493, numindb: 1
Update: records affected: 1



GetName: 52493 STARLINK-3883

Hit Count: updated at: Sat, 25 Jun 2022 05:06:43 GMT